This is the latest recevied weather packets stored in our database for station/object DK6MR-13. If no packets are shown the sender has not sent any weather packets the latest 10 day(s).
| Time | Temp. | Humidity | Pressure | Rain* | Wind** | Luminosity | Snow |
|---|---|---|---|---|---|---|---|
| 1777828010 | 17.78° C | 62% | 1010.8 hPa | 0 mm | - | - | - |
| 1777827109 | 17.78° C | 64% | 1010.5 hPa | 0 mm | - | - | - |
| 1777826208 | 17.78° C | 65% | 1010.8 hPa | 0 mm | - | - | - |
| 1777825307 | 17.78° C | 65% | 1010.8 hPa | 0 mm | - | - | - |
| 1777824429 | 17.78° C | 65% | 1010.8 hPa | 0 mm | - | - | - |
| 1777823506 | 18.33° C | 64% | 1010.5 hPa | 0 mm | - | - | - |
| 1777822605 | 18.89° C | 63% | 1010.5 hPa | 0 mm | - | - | - |
| 1777821704 | 19.44° C | 60% | 1010.1 hPa | 0 mm | - | - | - |
| 1777820803 | 20° C | 58% | 1010.1 hPa | 0 mm | - | - | - |
| 1777819902 | 20° C | 55% | 1010.1 hPa | 0 mm | - | - | - |
| 1777819001 | 20.56° C | 55% | 1010.1 hPa | 0 mm | - | - | - |
| 1777818100 | 20.56° C | 53% | 1010.1 hPa | 0 mm | - | - | - |
| 1777817199 | 20.56° C | 52% | 1010.1 hPa | 0 mm | - | - | - |
| 1777816298 | 21.11° C | 51% | 1010.1 hPa | 0 mm | - | - | - |
| 1777815397 | 21.11° C | 52% | 1010.5 hPa | 0 mm | - | - | - |
| 1777814496 | 21.11° C | 54% | 1010.5 hPa | 0 mm | - | - | - |
| 1777813595 | 20.56° C | 54% | 1010.5 hPa | 0 mm | - | - | - |
| 1777812694 | 20.56° C | 54% | 1010.5 hPa | 0 mm | - | - | - |
| 1777811793 | 21.11° C | 54% | 1010.5 hPa | 0 mm | - | - | - |
| 1777810892 | 21.67° C | 49% | 1010.5 hPa | 0 mm | - | - | - |
| 1777809991 | 21.67° C | 48% | 1010.8 hPa | 0 mm | - | - | - |
| 1777809090 | 22.22° C | 48% | 1010.5 hPa | 0 mm | - | - | - |
| 1777808189 | 22.22° C | 47% | 1010.1 hPa | 0 mm | - | - | - |
| 1777807289 | 22.22° C | 45% | 1010.1 hPa | 0 mm | - | - | - |
| 1777806388 | 22.22° C | 45% | 1010.5 hPa | 0 mm | - | - | - |
* Rain latest hour (hover to see other rain measurements)
** Current wind speed in m/s (hover to see current wind gust speed)